Waarnemingen

Advertentie
Mijn weer
Laupheim, Duitsland (10837): temperatuur & dauwpunt: 17.07.2017 10:00:00 - 23.07.2017 10:00:00 (CEST)Laupheim, Duitsland (10837): windsnelheid & windstoten: 17.07.2017 10:00:00 - 23.07.2017 10:00:00 (CEST)Laupheim, Duitsland (10837): windrichting: 17.07.2017 10:00:00 - 23.07.2017 10:00:00 (CEST)Laupheim, Duitsland (10837): luchtdruk: 17.07.2017 10:00:00 - 23.07.2017 10:00:00 (CEST)Laupheim, Duitsland (10837): zicht: 17.07.2017 10:00:00 - 23.07.2017 10:00:00 (CEST)
Datum & Tijd tt [°C] td [°C] ff [km/u] ff [kn] fx [km/u] fx [kn] dd ppp [hPa] vv [km]
23.07.2017 10:00:00 18,4 15,3 18 10 - - W 1017,1 30
23.07.2017 09:00:00 17,6 15,8 14 8 - - WZW 1017,1 30
23.07.2017 08:00:00 16,7 15,4 14 8 - - ZW 1016,9 20
23.07.2017 07:00:00 15,8 15,0 7 4 - - Z 1016,8 20
23.07.2017 06:00:00 15,9 15,1 4 2 - - N 1016,5 18
23.07.2017 05:00:00 15,9 15,2 11 6 - - W 1017,1 25
23.07.2017 04:00:00 15,9 14,9 7 4 - - N 1016,5 25
23.07.2017 03:00:00 16,1 15,2 11 6 - - ZO 1015,9 18
23.07.2017 02:00:00 16,3 15,5 18 10 - - WZW 1017,4 10
23.07.2017 01:00:00 18,6 15,8 11 6 - - ZW 1015,6 10
23.07.2017 00:00:00 19,1 15,2 4 2 - - N 1014,2 25
22.07.2017 23:00:00 19,1 14,9 4 2 - - O 1013,9 25
22.07.2017 22:00:00 21,5 13,9 7 4 - - ZZO 1013,5 30
22.07.2017 21:00:00 22,7 13,9 7 4 - - ZZO 1012,8 30
22.07.2017 20:00:00 23,6 13,7 4 2 - - O 1012,7 30
22.07.2017 19:00:00 23,4 13,9 7 4 - - NNO 1013,1 30
22.07.2017 18:00:00 25,1 12,6 14 8 - - W 1012,7 30
22.07.2017 17:00:00 25,9 12,8 14 8 - - ZW 1012,2 30
22.07.2017 16:00:00 26,1 13,9 14 8 - - ZW 1012,2 35
22.07.2017 15:00:00 25,6 13,8 11 6 - - ZW 1012,7 35
22.07.2017 14:00:00 24,4 13,9 11 6 - - WZW 1013,3 35
22.07.2017 13:00:00 23,4 15,2 11 6 - - ZW 1013,8 30
22.07.2017 12:00:00 22,7 15,4 11 6 - - WZW 1014,0 30
22.07.2017 11:00:00 21,2 16,0 18 10 - - WZW 1014,4 25
22.07.2017 10:00:00 20,0 15,8 14 8 - - ZW 1014,4 25
22.07.2017 09:00:00 18,6 16,4 11 6 - - WZW 1014,6 10
22.07.2017 08:00:00 16,9 15,5 11 6 - - WZW 1014,5 10
22.07.2017 07:00:00 16,4 15,5 14 8 - - WZW 1014,2 10
22.07.2017 06:00:00 16,3 15,4 14 8 - - ZW 1013,6 10
22.07.2017 05:00:00 16,3 15,4 14 8 - - WZW 1013,5 10
22.07.2017 04:00:00 16,1 15,4 11 6 - - WZW 1013,4 12
22.07.2017 03:00:00 16,3 15,3 11 6 - - ZZW 1013,4 8
22.07.2017 02:00:00 16,2 15,2 14 8 - - Z 1014,1 8
22.07.2017 01:00:00 16,4 15,2 11 6 - - Z 1013,4 8
22.07.2017 00:00:00 17,0 14,8 18 10 - - W 1013,4 5
21.07.2017 23:00:00 17,7 16,1 29 16 - - W 1012,4 7
21.07.2017 22:00:00 23,3 13,9 14 8 - - O 1008,5 30
21.07.2017 21:00:00 24,5 14,2 14 8 - - O 1008,1 30
21.07.2017 20:00:00 25,9 13,9 14 8 - - O 1008,0 30
21.07.2017 19:00:00 27,0 13,3 18 10 - - ONO 1008,1 30
21.07.2017 18:00:00 27,7 13,9 18 10 - - ONO 1007,8 30
21.07.2017 17:00:00 27,6 13,5 14 8 - - O 1008,7 30
21.07.2017 16:00:00 26,9 13,4 14 8 - - ONO 1009,7 30
21.07.2017 15:00:00 26,4 13,7 14 8 - - O 1010,1 30
21.07.2017 14:00:00 25,8 13,8 14 8 - - O 1010,8 25
21.07.2017 13:00:00 24,1 15,6 14 8 - - NO 1011,8 20
21.07.2017 12:00:00 22,7 16,1 14 8 - - NO 1012,8 20
21.07.2017 11:00:00 21,2 16,1 14 8 - - ONO 1013,5 20
21.07.2017 10:00:00 20,0 15,5 11 6 - - NNO 1014,1 20
21.07.2017 09:00:00 16,4 15,9 5 3 - - NNO 1015,2 3,0
21.07.2017 08:00:00 16,0 14,8 4 2 - - NNW 1015,2 1,5
21.07.2017 07:00:00 14,8 14,1 4 2 - - W 1015,5 3,2
21.07.2017 06:00:00 14,8 14,1 11 6 - - O 1015,2 8
21.07.2017 05:00:00 15,3 14,5 4 2 - - N 1015,1 9
21.07.2017 04:00:00 15,8 14,7 7 4 - - W 1015,4 9
21.07.2017 03:00:00 15,6 14,7 4 2 - - ZZW 1015,6 9
21.07.2017 02:00:00 15,3 14,5 4 2 - - WNW 1015,5 8
21.07.2017 01:00:00 16,4 15,2 4 2 - - WZW 1015,3 8
21.07.2017 00:00:00 16,5 15,1 11 6 - - ZZW 1015,4 20
20.07.2017 23:00:00 17,2 15,2 4 2 - - O 1015,3 20
20.07.2017 22:00:00 18,7 15,1 7 4 - - WNW 1014,9 20
20.07.2017 21:00:00 19,7 15,0 4 2 - - N 1014,4 20
20.07.2017 20:00:00 21,0 14,9 11 6 - - ZZW 1013,2 20
20.07.2017 19:00:00 21,0 14,8 11 6 - - ZZW 1012,8 40
20.07.2017 18:00:00 20,2 15,1 11 6 - - ZZW 1013,8 40
20.07.2017 17:00:00 20,3 15,6 11 6 - - ZW 1013,8 10
20.07.2017 16:00:00 18,8 16,2 14 8 - - ZW 1014,6 25
20.07.2017 15:00:00 17,0 16,0 5 3 - - ZW 1015,1 10
20.07.2017 14:00:00 17,2 15,4 11 6 - - W 1014,9 12
20.07.2017 13:00:00 20,4 14,6 14 8 - - W 1013,7 18
20.07.2017 12:00:00 21,8 13,8 18 10 - - W 1012,9 27
20.07.2017 11:00:00 21,9 14,7 22 12 - - W 1012,5 30
20.07.2017 10:00:00 21,7 14,6 14 8 - - ZW 1012,2 30
20.07.2017 09:00:00 20,2 15,6 11 6 - - ZW 1012,7 25
20.07.2017 08:00:00 18,7 15,8 11 6 - - W 1013,1 18
20.07.2017 07:00:00 18,1 15,4 7 4 - - WZW 1013,1 20
20.07.2017 06:00:00 17,3 15,3 11 6 - - ZW 1013,3 20
20.07.2017 05:00:00 16,8 15,8 14 8 - - WZW 1013,4 18
20.07.2017 04:00:00 16,8 16,0 7 4 - - ZZW 1013,0 7
20.07.2017 03:00:00 17,1 16,2 4 2 - - N 1013,0 20
20.07.2017 02:00:00 17,4 16,6 7 4 - - WNW 1013,2 20
20.07.2017 01:00:00 17,8 16,4 4 2 - - N 1013,6 20
20.07.2017 00:00:00 17,9 16,2 4 2 - - N 1013,8 12
19.07.2017 23:00:00 17,7 15,8 11 6 - - WNW 1014,6 9
19.07.2017 22:00:00 19,4 15,7 25 14 58 31 W 1013,8 7
19.07.2017 21:00:00 27,6 14,8 28 15 - - ZW 1009,9 10
19.07.2017 20:00:00 29,5 14,1 11 6 - - ZW 1008,7 30
19.07.2017 19:00:00 29,9 13,2 7 4 - - N 1008,4 40
19.07.2017 18:00:00 30,3 12,4 11 6 - - WZW 1008,5 40
19.07.2017 17:00:00 30,1 12,7 14 8 - - ZW 1009,3 40
19.07.2017 16:00:00 29,7 13,5 14 8 - - ZW 1009,9 40
19.07.2017 15:00:00 29,2 14,0 14 8 - - ZW 1010,5 40
19.07.2017 14:00:00 29,0 14,4 14 8 - - ZZW 1011,3 40
19.07.2017 13:00:00 27,6 16,6 11 6 - - WZW 1012,0 40
19.07.2017 12:00:00 25,8 16,8 11 6 - - ZW 1012,9 35
19.07.2017 11:00:00 24,0 15,6 11 6 - - WZW 1013,6 35
19.07.2017 10:00:00 22,3 15,1 11 6 - - ZW 1014,2 40
19.07.2017 09:00:00 19,6 14,8 11 6 - - WZW 1015,2 35
19.07.2017 08:00:00 17,9 14,1 4 2 - - ZW 1015,3 35
19.07.2017 07:00:00 15,5 13,5 7 4 - - Z 1015,7 40
19.07.2017 06:00:00 15,2 13,3 7 4 - - Z 1015,6 30
19.07.2017 05:00:00 15,4 13,7 4 2 - - N 1015,3 25
19.07.2017 04:00:00 15,7 13,9 4 2 - - N 1015,4 25
19.07.2017 03:00:00 16,5 14,2 4 2 - - O 1014,9 25
19.07.2017 02:00:00 17,0 14,7 4 2 - - NNW 1015,2 20
19.07.2017 01:00:00 18,4 14,3 22 12 - - ZW 1015,1 20
19.07.2017 00:00:00 18,0 15,1 7 4 - - ZO 1015,8 20
18.07.2017 23:00:00 20,6 12,1 11 6 - - WZW 1015,4 20
18.07.2017 22:00:00 23,7 11,8 7 4 - - ZZO 1014,2 20
18.07.2017 21:00:00 24,8 14,4 7 4 - - NO 1013,9 27
18.07.2017 20:00:00 26,8 13,6 14 8 - - ONO 1013,0 35
18.07.2017 19:00:00 27,3 12,1 18 10 - - NO 1012,9 35
18.07.2017 18:00:00 27,8 12,4 14 8 - - NO 1013,1 35
18.07.2017 17:00:00 27,9 12,6 11 6 - - NNO 1013,4 35
18.07.2017 16:00:00 27,8 12,7 14 8 - - NO 1014,1 35
18.07.2017 15:00:00 27,6 12,0 11 6 - - ONO 1014,6 35
18.07.2017 14:00:00 26,8 12,8 11 6 - - ONO 1015,3 30
18.07.2017 13:00:00 26,1 12,4 14 8 - - O 1016,1 30
18.07.2017 12:00:00 25,1 12,8 14 8 - - ONO 1016,6 30
18.07.2017 11:00:00 24,3 13,5 14 8 - - O 1017,1 30
18.07.2017 10:00:00 22,1 13,8 7 4 - - O 1017,8 25
18.07.2017 09:00:00 19,4 14,2 7 4 - - NO 1018,5 25
18.07.2017 08:00:00 16,9 14,2 11 6 - - NO 1019,3 30
18.07.2017 07:00:00 14,9 13,0 11 6 - - NO 1019,9 30
18.07.2017 06:00:00 14,4 12,6 4 2 - - NO 1019,9 22
18.07.2017 05:00:00 14,7 12,6 7 4 - - NO 1019,6 20
18.07.2017 04:00:00 15,6 13,2 4 2 - - NO 1019,6 20
18.07.2017 03:00:00 15,5 12,8 4 2 - - NNO 1020,0 22
18.07.2017 02:00:00 15,9 12,9 4 2 - - O 1020,1 22
18.07.2017 01:00:00 17,2 12,3 4 2 - - N 1020,1 25
18.07.2017 00:00:00 19,6 12,4 7 4 - - O 1019,5 30
17.07.2017 23:00:00 20,9 12,6 7 4 - - O 1019,2 30
17.07.2017 22:00:00 21,5 12,7 7 4 - - O 1018,9 30
17.07.2017 21:00:00 22,6 13,0 11 6 - - ONO 1018,4 35
17.07.2017 20:00:00 24,3 12,7 11 6 - - ONO 1017,9 30
17.07.2017 19:00:00 25,4 12,0 11 6 - - ONO 1017,8 30
17.07.2017 18:00:00 25,2 11,8 7 4 - - ONO 1018,1 35
17.07.2017 17:00:00 25,3 12,1 7 4 - - ONO 1018,5 35
17.07.2017 16:00:00 26,4 12,8 4 2 - - ONO 1018,3 40
17.07.2017 15:00:00 25,2 12,2 4 2 - - N 1019,0 40
17.07.2017 14:00:00 24,3 11,5 7 4 - - O 1019,5 40
17.07.2017 13:00:00 23,6 11,7 7 4 - - ONO 1019,9 40
17.07.2017 12:00:00 22,8 11,2 7 4 - - ZO 1020,2 40
17.07.2017 11:00:00 22,0 10,9 4 2 - - OZO 1020,7 35
17.07.2017 10:00:00 20,1 10,6 7 4 - - ONO 1021,3 35

tt = temperatuur
td = dauwpunt
ff = windsnelheid
fx = windstoten
dd = windrichting
ppp = luchtdruk
vv = zicht

Weerstations in de omgeving